Weather in Sheridan

United States     45°06′11″N   106°48′02″W
temp.,
°C
wind,
m/s
gust,
m/s
humid.,
%
clouds,
%
prec.,
mm/h
press.,
hPa
HPBL,
m
18 september, sat
sat1800:00+17ssw332717 0.0 101011
03:00+15sw22260 0.0 100911
06:00+15s33240 0.0 101014
09:00+23ssw24160 0.0 1008158
12:00+33sse5970 0.0 10033034
15:00+32wsw121213100 0.0 10012084
18:00+25wsw2329100 0.0 100077
21:00+22wsw7143621 0.0 1003522
19 september, sun
sun1900:00+21ssw59367 0.0 1002181
03:00+18s12394 0.0 100211
06:00+17nw3343100 0.0 100432
09:00+19n3633100 0.0 1005637
12:00+22n532527 0.0 10041925
15:00+14nnw91061100 0.6 1006513
18:00+12n696991 2.8 1009875
21:00+11wnw61057100 0.1 1012559
20 september, mon
mon2000:00+8sw22690 0.1 101219
03:00+8w22655 0.0 101311
06:00+7w226457 0.0 101621
09:00+11wnw7115293 0.0 10181124
12:00+13nw894197 0.0 10191578
15:00+16nw4828100 0.0 10182473
18:00+16nnw56257 0.0 10202280
21:00+9wnw335677 0.2 102429
21 september, tue
tue2100:00+7sw22713 0.6 102612
03:00+7ssw22670 0.0 102616
06:00+7ssw225589 0.0 102612
09:00+12ssw36355 0.0 1025278
12:00+19wsw24165 0.0 10221651
15:00+22wnw241657 0.0 10202080
18:00+22nne11160 0.0 1019373
21:00+14ese22260 0.0 102111
22 september, wed
wed2200:00+13ssw22280 0.0 102013
03:00+12s22330 0.0 101920
06:00+10ssw22405 0.0 101811
09:00+18s23255 0.0 1017159
12:00+27sse65115 0.0 10121637
15:00+30sse44996 0.0 10092392
18:00+27se341117 0.0 100889
21:00+17nw112157 0.0 100911